GFSNGP_850_temp_144.txt.gz
Temp
9 10 9 9 8 7 7 6 5 2 3 2 -0 -2 -0 -1 -2 -3 -4 -5 -5 -6 -6 -6 -6 -6 -6 -6 -5 -5 -4 -4 -4 -4 -5 -4 -4 -5 -5 -6 -5 -2 -0 1
9 10 8 8 7 7 7 6 4 3 3 4 3 0 -1 -1 -2 -4 -5 -5 -6 -7 -7 -8 -8 -8 -8 -7 -7 -7 -6 -5 -5 -4 -3 -4 -4 -5 -5 -6 -5 -4 -2 -0
8 8 6 4 4 6 5 4 4 3 2 2 3 1 -1 -2 -3 -4 -5 -6 -7 -8 -8 -9 -9 -9 -8 -8 -8 -8 -8 -7 -5 -5 -4 -4 -3 -3 -3 -5 -5 -4 -5 -3
5 6 5 4 4 5 2 1 2 1 1 2 -0 -2 -2 -2 -3 -5 -5 -6 -7 -8 -8 -9 -9 -8 -8 -8 -8 -8 -7 -7 -7 -6 -5 -5 -4 -5 -5 -4 -3 -3 -5 -4
5 6 5 5 5 3 4 2 1 1 1 -1 -2 -2 -4 -3 -4 -5 -6 -7 -8 -8 -9 -9 -9 -8 -8 -8 -9 -8 -8 -8 -8 -8 -7 -6 -5 -6 -7 -7 -7 -7 -6 -4
5 6 6 5 6 6 5 1 2 3 1 -0 -1 -1 -4 -4 -4 -5 -6 -8 -8 -9 -9 -10 -9 -9 -9 -9 -9 -9 -9 -9 -9 -9 -9 -8 -7 -7 -7 -7 -8 -8 -7 -5
5 5 5 5 5 6 4 2 2 2 1 -0 -2 -2 -3 -4 -5 -5 -7 -8 -8 -9 -9 -10 -10 -9 -9 -10 -10 -10 -9 -9 -9 -9 -9 -9 -9 -8 -8 -8 -8 -6 -6 -6
4 4 4 6 5 4 0 1 1 1 -0 -1 -1 -3 -3 -4 -5 -6 -7 -8 -8 -8 -8 -8 -9 -9 -10 -11 -11 -10 -9 -9 -9 -9 -10 -10 -9 -8 -7 -6 -5 -6 -6 -6
3 2 1 2 4 3 2 1 0 0 -0 -1 -2 -3 -3 -4 -5 -7 -8 -8 -9 -8 -8 -8 -8 -9 -10 -11 -11 -10 -9 -9 -9 -9 -9 -10 -10 -10 -8 -8 -8 -9 -9 -9
2 1 0 1 2 2 2 1 0 -0 -1 -1 -2 -3 -4 -5 -6 -7 -8 -8 -9 -8 -8 -9 -9 -9 -10 -10 -11 -10 -10 -10 -10 -10 -10 -10 -11 -12 -11 -11 -11 -11 -11 -10
0 -0 0 1 1 1 0 0 -0 -1 -1 -2 -2 -4 -4 -6 -7 -8 -8 -8 -8 -8 -8 -9 -10 -10 -10 -10 -10 -10 -11 -11 -11 -11 -11 -11 -11 -12 -11 -12 -14 -13 -13 -12
-0 1 0 -0 0 0 -0 -1 -1 -1 -2 -3 -3 -4 -5 -6 -7 -8 -8 -8 -8 -8 -9 -9 -10 -10 -10 -11 -11 -11 -11 -11 -11 -11 -11 -11 -11 -11 -12 -11 -11 -11 -12 -13
2 2 2 0 -0 -1 -1 -1 -2 -2 -2 -3 -4 -4 -5 -6 -7 -8 -8 -8 -8 -8 -9 -9 -10 -10 -10 -11 -11 -12 -12 -12 -12 -11 -11 -11 -11 -11 -10 -11 -11 -10 -10 -10
3 2 -1 -0 -1 -1 -2 -2 -2 -3 -4 -4 -5 -5 -6 -6 -7 -8 -8 -8 -8 -8 -9 -9 -9 -9 -10 -11 -11 -11 -12 -12 -12 -12 -12 -11 -11 -11 -11 -10 -10 -11 -11 -11
1 2 1 -0 -1 -2 -2 -2 -3 -4 -5 -5 -6 -6 -6 -7 -7 -7 -8 -8 -8 -8 -8 -9 -9 -9 -10 -10 -11 -11 -11 -12 -11 -11 -11 -11 -11 -11 -11 -11 -11 -11 -11 -11
1 1 -0 -1 -2 -2 -3 -3 -3 -5 -5 -6 -6 -7 -7 -7 -7 -7 -7 -8 -8 -8 -8 -8 -9 -9 -9 -10 -10 -11 -11 -12 -11 -11 -10 -10 -10 -11 -11 -12 -12 -12 -12 -12
-1 -2 -1 -2 -3 -3 -3 -3 -3 -4 -5 -6 -6 -6 -6 -7 -7 -7 -7 -8 -8 -8 -8 -8 -9 -9 -9 -10 -10 -10 -10 -11 -11 -11 -11 -11 -11 -11 -12 -12 -12 -13 -13 -14
1 -0 -1 -1 -2 -3 -4 -4 -4 -4 -5 -5 -6 -6 -6 -7 -6 -7 -7 -8 -8 -8 -8 -8 -9 -9 -9 -9 -10 -10 -11 -10 -11 -11 -11 -11 -11 -12 -12 -12 -13 -13 -13 -13
-0 -0 -1 -2 -2 -3 -3 -4 -4 -4 -5 -5 -6 -6 -6 -7 -7 -7 -7 -7 -8 -8 -8 -8 -8 -9 -9 -9 -10 -10 -10 -11 -11 -11 -12 -12 -12 -12 -13 -13 -13 -13 -13 -13
-0 -1 -1 -2 -2 -3 -3 -4 -4 -4 -5 -6 -6 -6 -6 -6 -7 -7 -8 -8 -8 -8 -8 -8 -9 -9 -9 -10 -10 -10 -11 -11 -11 -12 -12 -13 -13 -13 -13 -14 -14 -14 -14 -14
-0 -1 -1 -2 -2 -3 -3 -4 -4 -5 -5 -5 -5 -5 -6 -7 -7 -8 -8 -8 -8 -8 -8 -8 -9 -9 -9 -10 -10 -11 -11 -12 -12 -12 -13 -13 -14 -14 -14 -15 -15 -15 -15 -15
-0 -1 -1 -2 -2 -2 -3 -4 -4 -5 -5 -5 -6 -6 -7 -7 -7 -7 -7 -7 -8 -8 -8 -8 -9 -9 -10 -10 -11 -11 -11 -12 -13 -13 -14 -14 -15 -15 -15 -16 -16 -16 -16 -16
-1 -1 -2 -2 -2 -3 -3 -4 -5 -5 -5 -5 -5 -6 -6 -7 -7 -7 -7 -8 -8 -9 -9 -9 -10 -10 -10 -11 -11 -12 -12 -13 -13 -14 -15 -15 -16 -16 -17 -17 -17 -18 -17 -17
-1 -2 -2 -3 -3 -4 -4 -4 -5 -6 -6 -6 -7 -7 -7 -7 -7 -8 -8 -9 -9 -10 -10 -11 -11 -11 -11 -12 -13 -13 -13 -14 -15 -15 -16 -17 -17 -17 -18 -18 -18 -19 -19 -18
-2 -3 -3 -3 -4 -4 -4 -5 -6 -6 -6 -6 -7 -7 -7 -8 -8 -8 -8 -9 -10 -10 -11 -12 -12 -13 -13 -13 -14 -14 -15 -15 -16 -16 -17 -17 -18 -18 -18 -18 -19 -19 -19 -19
-3 -3 -3 -4 -4 -5 -5 -6 -6 -6 -7 -7 -7 -7 -7 -8 -9 -9 -10 -10 -11 -11 -12 -13 -13 -14 -14 -15 -15 -15 -16 -16 -16 -17 -17 -18 -18 -18 -19 -19 -19 -19 -20 -20
-4 -4 -4 -4 -4 -5 -6 -6 -7 -7 -7 -7 -7 -8 -8 -9 -9 -10 -10 -11 -11 -12 -13 -13 -14 -15 -15 -15 -16 -16 -16 -17 -17 -17 -17 -18 -18 -18 -19 -19 -19 -19 -20 -20

GFSNGP_850_temp_150.txt.gz
Temp
7 9 8 6 8 8 7 8 8 7 4 2 1 -1 -2 -1 -2 -3 -4 -4 -5 -5 -5 -5 -5 -5 -5 -4 -4 -4 -4 -4 -5 -5 -4 -4 -4 -5 -5 -5 -4 -5 -4 -4
6 8 8 7 7 8 8 7 4 3 4 2 1 -0 -2 -2 -3 -4 -4 -4 -6 -5 -6 -6 -7 -6 -5 -4 -5 -5 -5 -5 -5 -5 -4 -4 -4 -4 -4 -5 -4 -4 -5 -5
6 7 5 5 5 6 7 5 5 5 5 0 -1 -1 -2 -2 -3 -3 -4 -5 -6 -6 -7 -7 -7 -7 -6 -6 -6 -5 -6 -6 -6 -6 -5 -4 -4 -4 -4 -4 -4 -4 -6 -6
5 5 5 5 4 5 5 3 2 2 1 1 -0 -1 -1 -2 -2 -4 -5 -5 -5 -6 -7 -7 -7 -7 -7 -7 -6 -6 -6 -7 -7 -6 -6 -6 -5 -5 -5 -5 -5 -5 -5 -5
5 5 5 5 4 4 5 5 1 0 -1 -3 -3 -3 -5 -3 -4 -4 -5 -5 -6 -7 -7 -7 -7 -7 -7 -7 -7 -7 -7 -8 -8 -8 -7 -7 -6 -6 -6 -5 -6 -7 -6 -6
4 5 5 6 5 5 6 5 1 0 -2 -3 -3 -2 -4 -4 -4 -5 -5 -5 -7 -7 -7 -7 -7 -7 -8 -7 -7 -7 -8 -9 -9 -8 -8 -8 -8 -7 -8 -7 -7 -7 -8 -8
4 5 6 6 5 6 5 4 1 0 -1 -3 -2 -1 -2 -5 -5 -5 -5 -6 -7 -7 -7 -7 -7 -8 -8 -8 -8 -9 -9 -9 -9 -9 -8 -8 -8 -7 -7 -7 -8 -7 -7 -7
5 5 5 5 5 5 2 0 1 0 -1 -2 -1 -2 -4 -4 -4 -5 -6 -7 -7 -7 -7 -7 -8 -8 -8 -8 -9 -9 -9 -9 -9 -9 -9 -9 -8 -8 -7 -7 -7 -7 -7 -7
5 4 1 2 4 4 4 2 1 1 -0 0 -1 -3 -4 -4 -5 -6 -7 -7 -7 -7 -7 -7 -8 -8 -8 -9 -9 -9 -9 -8 -9 -9 -9 -9 -8 -8 -7 -8 -8 -8 -8 -8
3 1 1 1 2 4 4 3 2 2 1 -0 -2 -3 -4 -5 -6 -6 -7 -7 -7 -7 -7 -7 -7 -8 -8 -9 -9 -8 -8 -8 -8 -8 -9 -9 -9 -9 -9 -10 -10 -10 -10 -10
-0 -1 -0 0 2 3 2 2 2 1 1 -0 -1 -3 -3 -5 -6 -6 -6 -7 -7 -7 -7 -7 -7 -8 -8 -8 -8 -8 -8 -8 -9 -9 -9 -9 -9 -9 -10 -10 -12 -11 -12 -12
1 2 2 2 2 2 2 1 1 -0 -1 -1 -1 -3 -4 -5 -5 -6 -6 -7 -7 -7 -7 -7 -7 -7 -7 -8 -8 -8 -7 -7 -8 -9 -9 -9 -10 -10 -10 -10 -10 -10 -10 -10
4 2 2 2 1 1 2 1 -0 -0 -0 -2 -3 -3 -4 -4 -5 -6 -6 -6 -7 -7 -7 -7 -7 -7 -7 -7 -7 -7 -7 -7 -8 -8 -8 -8 -9 -9 -10 -11 -11 -10 -10 -10
3 3 -1 0 -0 1 1 -0 -1 -1 -1 -2 -3 -4 -4 -5 -6 -6 -6 -6 -7 -7 -7 -7 -7 -7 -6 -6 -6 -6 -7 -7 -7 -7 -8 -8 -8 -9 -9 -9 -9 -10 -10 -11
1 3 3 1 0 -0 -0 -1 -1 -2 -2 -3 -3 -4 -4 -5 -5 -6 -6 -6 -7 -7 -7 -7 -7 -7 -7 -7 -6 -6 -6 -6 -7 -7 -7 -8 -8 -8 -8 -9 -9 -9 -9 -9
1 2 1 1 -0 -1 -1 -1 -1 -2 -3 -3 -4 -4 -5 -5 -6 -6 -6 -6 -6 -6 -7 -7 -7 -8 -8 -8 -7 -7 -6 -6 -6 -7 -7 -8 -8 -8 -8 -9 -9 -9 -10 -10
1 -2 -1 -1 -1 -1 -1 -1 -1 -2 -3 -3 -4 -5 -5 -6 -6 -6 -6 -6 -7 -7 -7 -8 -8 -8 -8 -9 -9 -9 -8 -8 -8 -8 -8 -9 -9 -9 -10 -10 -10 -10 -11 -11
3 3 1 2 -0 -1 -2 -2 -2 -2 -3 -3 -4 -5 -5 -5 -5 -5 -6 -7 -7 -7 -7 -8 -8 -8 -8 -9 -9 -10 -10 -10 -10 -10 -11 -11 -11 -12 -12 -13 -12 -12 -12 -12
1 2 1 1 0 -0 -1 -2 -2 -3 -3 -4 -5 -5 -5 -5 -6 -7 -7 -7 -7 -7 -7 -7 -8 -8 -8 -9 -10 -10 -10 -11 -12 -12 -12 -13 -14 -15 -15 -16 -16 -16 -16 -16
0 -0 0 0 -0 -1 -1 -2 -3 -3 -4 -4 -5 -5 -5 -6 -7 -7 -7 -7 -7 -8 -8 -8 -8 -9 -9 -9 -10 -10 -11 -11 -12 -13 -13 -14 -14 -15 -16 -17 -17 -18 -18 -18
0 -0 -1 -1 -1 -1 -2 -2 -3 -3 -4 -5 -5 -4 -4 -5 -6 -7 -7 -7 -7 -8 -8 -8 -9 -9 -9 -10 -11 -11 -11 -12 -13 -13 -14 -15 -15 -16 -16 -17 -18 -18 -19 -19
0 -0 -1 -1 -1 -2 -2 -3 -3 -4 -4 -4 -5 -5 -6 -6 -6 -6 -6 -7 -8 -8 -9 -9 -10 -10 -11 -11 -12 -12 -12 -13 -14 -14 -15 -15 -16 -16 -17 -17 -18 -18 -18 -19
-0 -0 -1 -1 -1 -2 -2 -3 -3 -4 -4 -4 -5 -5 -5 -6 -6 -6 -6 -7 -8 -8 -9 -9 -10 -11 -12 -12 -12 -13 -13 -14 -15 -15 -16 -16 -16 -17 -17 -18 -18 -18 -18 -19
-0 -1 -1 -1 -2 -2 -2 -3 -3 -4 -4 -5 -6 -6 -6 -6 -6 -6 -7 -7 -8 -8 -9 -10 -11 -12 -12 -13 -13 -14 -14 -15 -15 -16 -16 -16 -17 -17 -18 -18 -18 -18 -18 -18
-1 -1 -1 -2 -2 -2 -3 -3 -3 -4 -4 -5 -5 -6 -6 -6 -7 -7 -8 -8 -9 -9 -10 -11 -11 -12 -13 -13 -14 -14 -15 -15 -16 -16 -16 -17 -17 -17 -17 -18 -18 -18 -18 -19
-2 -2 -3 -3 -3 -3 -4 -4 -4 -5 -5 -5 -6 -6 -7 -7 -7 -8 -8 -9 -9 -10 -11 -11 -12 -13 -13 -14 -15 -15 -15 -16 -16 -16 -16 -17 -17 -17 -17 -17 -18 -18 -18 -19
-3 -3 -4 -4 -4 -4 -4 -5 -5 -5 -6 -6 -7 -7 -8 -8 -8 -9 -9 -10 -10 -10 -11 -12 -13 -13 -14 -14 -15 -15 -15 -16 -16 -16 -16 -16 -17 -17 -17 -17 -18 -18 -18 -18

GFSNGP_850_temp_153.txt.gz
Temp
9 9 9 9 9 9 7 6 5 7 6 5 2 1 -0 -1 -3 -3 -4 -4 -4 -5 -4 -4 -3 -3 -3 -3 -4 -5 -6 -5 -5 -5 -5 -5 -4 -4 -4 -5 -5 -6 -5 -6
7 9 7 5 8 9 8 6 5 5 7 4 3 1 -1 -2 -3 -3 -4 -4 -5 -5 -5 -4 -4 -4 -5 -5 -6 -6 -6 -6 -5 -5 -5 -5 -5 -5 -5 -5 -5 -6 -6 -6
6 7 5 5 6 7 8 9 8 7 8 2 1 1 -0 -2 -3 -3 -4 -5 -5 -5 -5 -5 -5 -6 -6 -6 -6 -7 -7 -6 -6 -6 -6 -6 -6 -5 -5 -5 -6 -6 -6 -6
6 5 6 7 5 6 6 7 6 5 3 3 2 0 -1 -2 -3 -4 -4 -4 -4 -5 -6 -6 -6 -7 -7 -7 -7 -7 -6 -6 -7 -7 -6 -6 -6 -6 -6 -6 -6 -7 -6 -6
5 7 7 8 6 5 7 7 5 4 1 -1 -2 -2 -4 -3 -2 -3 -3 -4 -5 -6 -6 -6 -6 -7 -7 -7 -7 -7 -7 -7 -7 -7 -7 -6 -6 -6 -6 -6 -6 -7 -7 -7
5 5 6 8 6 5 7 7 4 2 0 -1 -0 2 1 -4 -3 -3 -4 -5 -5 -6 -6 -7 -7 -8 -7 -7 -7 -7 -7 -8 -8 -7 -7 -7 -7 -7 -7 -7 -7 -7 -7 -7
6 5 6 7 6 6 7 6 2 1 -0 -1 2 1 -1 -3 -4 -4 -5 -5 -6 -6 -7 -7 -8 -7 -7 -7 -7 -8 -8 -8 -7 -7 -7 -8 -7 -7 -7 -7 -7 -8 -8 -8
4 4 5 5 5 6 5 0 1 -0 -1 -1 -1 -2 -3 -3 -4 -4 -5 -5 -6 -7 -7 -7 -7 -7 -7 -7 -8 -8 -8 -7 -7 -7 -7 -7 -7 -7 -7 -7 -7 -8 -8 -8
6 6 3 3 3 5 4 2 -1 -0 -2 0 -1 -2 -3 -4 -4 -5 -5 -6 -6 -7 -7 -7 -7 -7 -7 -7 -7 -7 -7 -7 -7 -7 -7 -7 -7 -7 -7 -7 -8 -8 -8 -8
5 3 2 1 3 4 3 3 2 2 1 1 0 -2 -3 -4 -5 -5 -5 -6 -6 -7 -7 -7 -7 -7 -7 -7 -7 -7 -7 -6 -7 -6 -7 -7 -7 -7 -8 -8 -9 -10 -10 -10
4 1 0 1 3 4 3 3 2 2 2 1 1 -2 -3 -4 -5 -5 -5 -6 -6 -6 -7 -7 -7 -7 -7 -7 -7 -7 -7 -6 -6 -7 -7 -7 -7 -7 -8 -8 -9 -9 -10 -11
5 4 5 4 4 4 3 3 3 2 0 -0 -0 -1 -3 -4 -4 -4 -5 -6 -6 -7 -7 -7 -7 -7 -7 -7 -7 -7 -7 -6 -6 -7 -7 -8 -8 -9 -9 -9 -10 -9 -10 -10
4 3 3 3 2 2 3 2 2 2 1 -0 -2 -1 -3 -3 -4 -5 -5 -6 -6 -6 -7 -7 -7 -7 -7 -7 -7 -7 -7 -7 -7 -6 -7 -7 -7 -8 -9 -10 -10 -10 -10 -10
3 3 -0 0 0 1 2 1 1 0 -0 -1 -1 -3 -3 -4 -5 -5 -5 -5 -6 -6 -6 -6 -6 -7 -7 -7 -7 -7 -8 -8 -7 -7 -7 -7 -7 -8 -8 -9 -9 -10 -10 -10
1 3 3 2 1 0 1 0 -0 -1 -1 -2 -2 -3 -4 -4 -5 -5 -6 -6 -6 -6 -6 -6 -6 -7 -6 -7 -7 -8 -8 -8 -8 -8 -8 -8 -8 -9 -9 -9 -9 -10 -10 -10
1 2 1 1 1 0 -0 -1 -1 -1 -2 -2 -3 -4 -4 -4 -5 -5 -6 -6 -5 -5 -6 -6 -6 -7 -7 -7 -7 -8 -8 -8 -8 -8 -8 -8 -8 -9 -9 -9 -9 -10 -10 -10
1 -2 -1 -1 -0 -0 -0 -0 -0 -1 -2 -2 -3 -4 -4 -5 -6 -6 -6 -6 -6 -6 -6 -6 -7 -7 -7 -7 -8 -8 -8 -8 -8 -8 -8 -8 -9 -9 -9 -10 -10 -11 -11 -11
3 3 2 2 1 -0 -1 -1 -1 -1 -1 -2 -3 -4 -4 -5 -4 -5 -5 -6 -6 -6 -6 -6 -7 -7 -7 -7 -8 -8 -8 -8 -9 -9 -9 -9 -10 -10 -10 -11 -11 -12 -12 -13
1 2 2 1 1 0 -1 -1 -1 -2 -2 -2 -3 -3 -4 -5 -6 -6 -6 -6 -6 -6 -7 -7 -7 -7 -8 -8 -8 -9 -9 -10 -10 -10 -10 -10 -11 -12 -12 -12 -13 -13 -13 -13
1 1 1 1 0 -0 -0 -1 -1 -2 -3 -3 -4 -4 -5 -6 -6 -6 -6 -5 -6 -6 -7 -7 -7 -8 -8 -9 -9 -10 -10 -11 -11 -12 -12 -13 -13 -14 -14 -15 -15 -15 -16 -16
0 0 0 0 -0 -1 -1 -1 -2 -2 -3 -3 -4 -4 -5 -6 -6 -6 -6 -6 -6 -7 -7 -8 -8 -9 -9 -9 -9 -10 -11 -11 -12 -13 -14 -14 -15 -15 -16 -16 -17 -17 -17 -18
-0 -0 -1 -1 -1 -1 -2 -2 -3 -3 -3 -4 -4 -5 -6 -6 -6 -6 -6 -6 -7 -7 -7 -7 -8 -9 -9 -10 -10 -11 -12 -12 -13 -14 -14 -15 -15 -16 -16 -17 -17 -18 -18 -18
-1 -1 -1 -1 -1 -2 -2 -3 -3 -3 -4 -4 -4 -5 -5 -5 -6 -6 -6 -6 -7 -7 -8 -8 -9 -10 -10 -11 -12 -12 -12 -13 -13 -14 -15 -16 -16 -16 -17 -17 -17 -18 -18 -18
-1 -1 -1 -1 -2 -2 -2 -2 -3 -3 -4 -4 -5 -5 -6 -6 -6 -6 -7 -7 -7 -8 -8 -9 -9 -10 -11 -12 -12 -13 -13 -14 -14 -15 -15 -16 -16 -17 -17 -17 -17 -18 -18 -18
-1 -1 -1 -2 -2 -2 -2 -3 -3 -3 -4 -4 -4 -5 -5 -6 -6 -7 -7 -8 -8 -8 -9 -9 -10 -11 -11 -12 -13 -13 -14 -14 -15 -15 -16 -16 -16 -17 -17 -17 -17 -17 -18 -18
-1 -2 -2 -2 -3 -3 -3 -3 -3 -4 -4 -4 -5 -5 -6 -6 -7 -7 -8 -8 -9 -9 -10 -10 -11 -11 -12 -13 -13 -14 -14 -15 -15 -15 -16 -16 -16 -16 -17 -17 -17 -17 -18 -18
-2 -3 -3 -3 -3 -4 -4 -4 -4 -5 -5 -5 -6 -6 -7 -7 -8 -8 -8 -9 -9 -10 -10 -11 -11 -12 -12 -13 -13 -14 -14 -15 -15 -15 -16 -16 -16 -16 -16 -17 -17 -17 -17 -18

GFSNGP_850_temp_156.txt.gz
Temp
11 12 12 11 11 12 11 11 8 10 9 8 4 3 1 1 -1 -2 -3 -4 -5 -5 -5 -5 -5 -5 -7 -5 -5 -4 -4 -5 -5 -7 -5 -5 -6 -8 -7 -6 -7 -6 -6 -6
10 11 11 10 11 11 11 11 11 10 9 11 8 6 2 0 -2 -2 -3 -4 -5 -6 -6 -7 -7 -7 -7 -7 -6 -7 -7 -7 -8 -7 -8 -9 -9 -9 -9 -8 -8 -7 -7 -7
8 10 9 6 8 9 10 11 11 10 10 7 7 5 3 2 -0 -1 -2 -3 -4 -5 -6 -7 -7 -7 -7 -7 -7 -8 -8 -8 -8 -9 -9 -9 -9 -8 -8 -9 -9 -9 -8 -7
7 9 7 10 10 10 8 10 9 11 11 8 8 5 4 3 1 -0 -2 -4 -5 -6 -7 -7 -7 -8 -7 -7 -8 -8 -8 -9 -9 -9 -9 -9 -9 -9 -9 -9 -9 -9 -10 -10
7 9 10 11 12 8 8 10 12 10 10 7 5 3 2 2 1 -1 -2 -4 -5 -7 -7 -7 -8 -7 -6 -7 -7 -7 -9 -9 -9 -8 -9 -9 -9 -9 -9 -9 -9 -10 -10 -11
8 7 8 11 10 9 9 9 12 10 7 4 3 6 4 -1 -2 -3 -4 -5 -6 -7 -6 -5 -5 -6 -5 -5 -6 -6 -6 -7 -8 -8 -8 -9 -9 -9 -9 -9 -10 -10 -10 -11
8 7 9 11 10 8 8 9 8 8 6 4 7 5 2 -2 -3 -4 -5 -6 -7 -7 -7 -5 -5 -5 -5 -6 -6 -6 -6 -6 -6 -7 -6 -6 -7 -8 -9 -9 -9 -9 -10 -11
7 6 7 9 8 9 7 4 4 4 4 4 0 -1 -2 -3 -4 -5 -6 -7 -7 -7 -6 -5 -5 -6 -6 -6 -6 -6 -6 -6 -6 -6 -6 -6 -6 -6 -6 -8 -8 -7 -8 -9
7 9 7 8 7 5 5 5 3 4 3 1 -0 -1 -2 -4 -5 -5 -7 -6 -8 -7 -5 -6 -6 -6 -6 -6 -6 -6 -6 -6 -6 -6 -6 -5 -5 -5 -6 -6 -7 -8 -9 -11
8 9 9 6 4 4 4 4 3 2 1 1 -0 -2 -3 -4 -5 -6 -5 -5 -5 -5 -6 -6 -6 -6 -6 -7 -6 -6 -6 -6 -6 -6 -6 -6 -6 -6 -6 -6 -7 -8 -9 -9
8 8 5 5 4 5 3 2 2 1 1 1 -1 -2 -3 -4 -4 -6 -5 -5 -5 -5 -6 -6 -6 -6 -6 -6 -7 -7 -7 -7 -7 -7 -6 -6 -7 -7 -8 -8 -8 -9 -9 -12
7 8 8 9 5 3 3 2 1 1 0 -1 -1 -2 -3 -3 -5 -6 -6 -5 -5 -6 -6 -6 -6 -7 -7 -7 -7 -8 -7 -8 -7 -8 -8 -8 -8 -8 -8 -8 -9 -9 -10 -10
8 4 3 3 3 2 2 2 1 0 -0 -1 -1 -2 -3 -4 -5 -6 -7 -6 -7 -6 -6 -6 -6 -6 -7 -7 -7 -7 -7 -7 -7 -8 -8 -8 -8 -8 -9 -8 -9 -10 -10 -10
3 3 1 1 1 1 1 0 -0 -1 -1 -2 -2 -3 -3 -4 -5 -6 -6 -6 -7 -6 -6 -6 -7 -7 -7 -7 -7 -7 -7 -7 -8 -8 -8 -8 -8 -9 -9 -9 -11 -12 -9 -10
2 2 2 1 0 -0 -0 -1 -1 -2 -2 -3 -3 -3 -4 -5 -5 -6 -6 -5 -5 -6 -6 -7 -7 -7 -7 -7 -8 -8 -8 -8 -8 -8 -8 -9 -9 -9 -10 -11 -12 -13 -14 -13
0 2 0 0 -0 -1 -1 -1 -1 -2 -3 -3 -4 -4 -4 -4 -5 -6 -5 -5 -5 -5 -6 -6 -7 -7 -7 -8 -8 -8 -8 -8 -9 -9 -10 -10 -11 -12 -13 -13 -14 -14 -15 -15
1 1 0 0 -0 -1 -1 -1 -1 -2 -2 -3 -3 -4 -5 -5 -5 -5 -5 -5 -5 -5 -5 -5 -6 -6 -6 -7 -7 -8 -8 -9 -8 -9 -10 -10 -11 -12 -13 -14 -14 -15 -15 -15
1 2 1 1 -0 -1 -1 -1 -1 -2 -2 -2 -3 -3 -3 -3 -3 -3 -4 -5 -6 -6 -6 -6 -6 -5 -6 -6 -7 -8 -8 -9 -9 -10 -10 -11 -11 -11 -13 -13 -14 -15 -15 -16
1 2 2 -0 -1 -1 -1 -2 -2 -1 -1 -1 -2 -2 -3 -3 -4 -4 -5 -5 -6 -6 -6 -6 -6 -7 -7 -7 -8 -8 -8 -9 -9 -10 -10 -10 -12 -14 -14 -15 -15 -16 -16 -16
1 1 1 0 -1 -1 -1 -0 -0 -1 -1 -2 -3 -3 -3 -4 -5 -5 -5 -5 -5 -6 -6 -6 -6 -7 -7 -7 -8 -8 -9 -9 -10 -11 -11 -12 -13 -14 -15 -15 -16 -16 -16 -17
0 0 0 0 0 -0 -0 -0 -1 -1 -2 -2 -3 -3 -3 -4 -5 -5 -5 -5 -5 -6 -7 -7 -7 -7 -7 -8 -8 -9 -9 -10 -10 -12 -14 -14 -15 -15 -16 -16 -16 -17 -17 -17
-0 -0 -1 -1 -1 -1 -1 -1 -2 -2 -2 -3 -3 -4 -4 -5 -5 -5 -5 -6 -7 -6 -7 -7 -7 -8 -8 -8 -9 -10 -10 -11 -12 -14 -15 -15 -16 -16 -16 -17 -17 -17 -18 -18
-1 -1 -1 -1 -1 -1 -1 -2 -2 -3 -3 -3 -3 -4 -4 -4 -5 -5 -5 -6 -6 -7 -7 -8 -8 -8 -9 -10 -10 -11 -11 -12 -13 -14 -15 -16 -16 -16 -17 -17 -17 -17 -18 -18
-1 -1 -1 -1 -1 -2 -2 -2 -3 -3 -3 -4 -4 -4 -5 -5 -5 -6 -6 -6 -7 -7 -7 -8 -8 -9 -10 -10 -11 -11 -12 -12 -13 -15 -16 -16 -16 -17 -17 -17 -17 -17 -18 -18
-1 -1 -1 -1 -2 -2 -2 -2 -3 -3 -3 -4 -4 -4 -5 -5 -6 -6 -6 -7 -7 -8 -8 -8 -9 -9 -10 -11 -11 -12 -12 -13 -14 -15 -16 -16 -16 -17 -17 -17 -17 -17 -17 -18
-1 -2 -2 -2 -2 -3 -3 -3 -3 -3 -4 -4 -4 -4 -5 -5 -6 -6 -7 -7 -7 -8 -9 -9 -10 -10 -11 -11 -12 -12 -13 -14 -14 -14 -15 -15 -16 -16 -16 -17 -17 -17 -17 -17
-3 -3 -3 -3 -3 -3 -4 -4 -4 -4 -4 -5 -5 -5 -5 -6 -6 -7 -7 -8 -8 -9 -9 -10 -10 -11 -11 -12 -12 -13 -13 -14 -14 -15 -15 -15 -15 -16 -16 -16 -16 -16 -17 -17